Private Wetterstation Wechselburg
Wetterdaten: Samstag, 26.11.2011
Datum Zeit Temp. +2m Bodentemp. Temp.+5cm Temp. Wind Windchill X Diff Temp. Feuchte +2m Feuchte +5cm Sonnenschein Luftdruck Regen Wind Richtung Richtung Sonnenschein UV Taupunkt Windchill Windben
26.11.2011 00:00 3,5 C 9,5 C 3,5 C 3,2 C 2,6 C 0,0 C 82 % 85 % 0 % 1028,2 hPa 0,0 l/m 4,3 km/h (1 Bft) W-SW 247 0 min 0,0 UV-I 0,7 C 2,6 C 6,8 km/h (2 Bft)
26.11.2011 00:04 3,5 C 9,5 C 3,5 C 3,1 C 2,4 C 0,0 C 82 % 85 % 0 % 1028,2 hPa 0,0 l/m 4,2 km/h (1 Bft) W 270 0 min 0,0 UV-I 0,7 C 2,4 C 4,3 km/h (1 Bft)
26.11.2011 00:09 3,5 C 9,5 C 3,4 C 3,2 C 2,7 C 0,0 C 82 % 85 % 0 % 1028,2 hPa 0,0 l/m 3,2 km/h (1 Bft) SW 225 0 min 0,0 UV-I 0,7 C 2,7 C 5,1 km/h (1 Bft)
26.11.2011 00:14 3,3 C 9,5 C 3,3 C 2,8 C 1,9 C 0,0 C 82 % 85 % 0 % 1028,2 hPa 0,0 l/m 4,0 km/h (1 Bft) S-SO 157 0 min 0,0 UV-I 0,5 C 1,9 C 3,5 km/h (1 Bft)
26.11.2011 00:20 3,2 C 9,5 C 3,3 C 2,5 C 1,2 C 0,0 C 82 % 85 % 0 % 1027,9 hPa 0,0 l/m 5,3 km/h (1 Bft) W 270 0 min 0,0 UV-I 0,4 C -0,4 C 7,6 km/h (2 Bft)
26.11.2011 00:25 3,3 C 9,5 C 3,3 C 2,5 C 0,8 C 0,0 C 82 % 85 % 0 % 1027,9 hPa 0,0 l/m 6,9 km/h (2 Bft) W-SW 247 0 min 0,0 UV-I 0,5 C -1,4 C 5,6 km/h (1 Bft)
26.11.2011 00:30 3,2 C 9,5 C 3,2 C 2,4 C 0,9 C 0,0 C 83 % 85 % 0 % 1027,9 hPa 0,0 l/m 6,8 km/h (2 Bft) W-SW 247 0 min 0,0 UV-I 0,6 C -1,3 C 12,9 km/h (3 Bft)
26.11.2011 00:35 3,2 C 9,5 C 3,1 C 2,4 C 0,8 C 0,0 C 83 % 85 % 0 % 1027,9 hPa 0,0 l/m 7,1 km/h (2 Bft) W-SW 247 0 min 0,0 UV-I 0,6 C -1,5 C 10,5 km/h (2 Bft)
26.11.2011 00:40 3,2 C 9,5 C 3,1 C 2,4 C 0,8 C 0,0 C 83 % 85 % 0 % 1027,7 hPa 0,0 l/m 7,6 km/h (2 Bft) W-SW 247 0 min 0,0 UV-I 0,6 C -1,7 C 8,9 km/h (2 Bft)
26.11.2011 00:45 3,2 C 9,5 C 3,1 C 2,5 C 1,2 C 0,0 C 83 % 85 % 0 % 1027,7 hPa 0,0 l/m 6,3 km/h (2 Bft) W-SW 247 0 min 0,0 UV-I 0,6 C -0,8 C 6,3 km/h (2 Bft)
26.11.2011 00:50 3,2 C 9,5 C 3,0 C 2,6 C 1,3 C 0,0 C 83 % 85 % 0 % 1027,7 hPa 0,0 l/m 5,6 km/h (1 Bft) W-SW 247 0 min 0,0 UV-I 0,6 C -0,4 C 14,3 km/h (3 Bft)
26.11.2011 00:55 3,1 C 9,5 C 3,0 C 2,4 C 0,9 C 0,0 C 83 % 85 % 0 % 1027,7 hPa 0,0 l/m 5,8 km/h (2 Bft) W-SW 247 0 min 0,0 UV-I 0,5 C -0,9 C 10,5 km/h (2 Bft)
26.11.2011 01:00 3,1 C 9,5 C 2,9 C 2,3 C 0,7 C 0,0 C 83 % 85 % 0 % 1028,4 hPa 0,0 l/m 6,3 km/h (2 Bft) W 270 0 min 0,0 UV-I 0,5 C -1,3 C 7,1 km/h (2 Bft)
26.11.2011 01:08 3,1 C 9,5 C 2,9 C 2,3 C 0,6 C 0,0 C 83 % 85 % 0 % 1028,4 hPa 0,0 l/m 6,3 km/h (2 Bft) N 0 0 min 0,0 UV-I 0,5 C -1,5 C 5,5 km/h (1 Bft)
26.11.2011 01:20 3,1 C 9,5 C 2,9 C 2,3 C 0,8 C 0,0 C 83 % 86 % 0 % 1028,4 hPa 0,0 l/m 7,2 km/h (2 Bft) SW 225 0 min 0,0 UV-I 0,5 C -1,5 C 10,0 km/h (2 Bft)
26.11.2011 01:25 3,1 C 9,5 C 3,1 C 2,5 C 1,2 C 0,0 C 83 % 86 % 0 % 1028,4 hPa 0,0 l/m 6,8 km/h (2 Bft) W 270 0 min 0,0 UV-I 0,5 C -0,9 C 7,9 km/h (2 Bft)
26.11.2011 01:30 3,1 C 9,5 C 3,1 C 2,6 C 1,5 C 0,0 C 83 % 86 % 0 % 1028,4 hPa 0,0 l/m 5,5 km/h (1 Bft) O-NO 67 0 min 0,0 UV-I 0,5 C -0,1 C 6,9 km/h (2 Bft)
26.11.2011 01:35 3,1 C 9,5 C 3,1 C 2,7 C 1,8 C 0,0 C 83 % 86 % 0 % 1028,4 hPa 0,0 l/m 4,3 km/h (1 Bft) W 270 0 min 0,0 UV-I 0,5 C 1,8 C 5,0 km/h (1 Bft)
26.11.2011 01:40 3,1 C 9,5 C 3,1 C 2,7 C 1,8 C 0,0 C 83 % 86 % 0 % 1028,0 hPa 0,0 l/m 4,3 km/h (1 Bft) W 270 0 min 0,0 UV-I 0,5 C 1,8 C 9,5 km/h (2 Bft)
26.11.2011 01:45 3,0 C 9,5 C 3,1 C 2,6 C 1,7 C 0,0 C 83 % 86 % 0 % 1028,0 hPa 0,0 l/m 4,2 km/h (1 Bft) N-NO 22 0 min 0,0 UV-I 0,4 C 1,7 C 6,6 km/h (2 Bft)
26.11.2011 01:50 3,1 C 9,5 C 3,1 C 2,5 C 1,4 C 0,0 C 83 % 86 % 0 % 1028,0 hPa 0,0 l/m 5,0 km/h (1 Bft) W 270 0 min 0,0 UV-I 0,5 C -0,0 C 5,6 km/h (1 Bft)
26.11.2011 01:55 3,0 C 9,5 C 2,9 C 2,4 C 1,2 C 0,0 C 83 % 86 % 0 % 1028,0 hPa 0,0 l/m 5,1 km/h (1 Bft) W-SW 247 0 min 0,0 UV-I 0,4 C -0,3 C 12,1 km/h (2 Bft)
26.11.2011 02:00 3,1 C 9,5 C 2,9 C 2,5 C 1,2 C 0,0 C 83 % 86 % 0 % 1028,0 hPa 0,0 l/m 5,1 km/h (1 Bft) S-SW 202 0 min 0,0 UV-I 0,5 C -0,3 C 4,7 km/h (1 Bft)
26.11.2011 02:11 3,1 C 9,5 C 2,9 C 2,5 C 1,2 C 0,0 C 83 % 86 % 0 % 1028,0 hPa 0,0 l/m 5,1 km/h (1 Bft) N 0 0 min 0,0 UV-I 0,5 C -0,3 C 3,5 km/h (1 Bft)
26.11.2011 02:20 2,8 C 9,5 C 2,8 C 2,4 C 1,6 C 0,0 C 84 % 86 % 0 % 1029,0 hPa 0,0 l/m 3,4 km/h (1 Bft) NW 315 0 min 0,0 UV-I 0,4 C 1,6 C 7,4 km/h (2 Bft)
26.11.2011 02:25 2,9 C 9,5 C 2,8 C 2,5 C 1,8 C 0,0 C 84 % 86 % 0 % 1029,0 hPa 0,0 l/m 3,1 km/h (1 Bft) W-SW 247 0 min 0,0 UV-I 0,5 C 1,8 C 2,1 km/h (1 Bft)
26.11.2011 02:30 2,8 C 9,5 C 2,7 C 2,5 C 2,0 C 0,0 C 84 % 86 % 0 % 1029,0 hPa 0,0 l/m 2,6 km/h (1 Bft) O-SO 112 0 min 0,0 UV-I 0,4 C 2,0 C 2,9 km/h (1 Bft)
26.11.2011 02:35 2,8 C 9,5 C 2,7 C 2,3 C 1,2 C 0,0 C 84 % 86 % 0 % 1029,0 hPa 0,0 l/m 3,7 km/h (1 Bft) W 270 0 min 0,0 UV-I 0,4 C 1,2 C 14,0 km/h (3 Bft)
26.11.2011 02:40 2,8 C 9,5 C 2,7 C 2,1 C 0,8 C 0,0 C 84 % 87 % 0 % 1029,0 hPa 0,0 l/m 4,5 km/h (1 Bft) S-SW 202 0 min 0,0 UV-I 0,4 C 0,8 C 7,7 km/h (2 Bft)
26.11.2011 02:45 2,8 C 9,5 C 2,7 C 2,1 C 0,8 C 0,0 C 84 % 87 % 0 % 1029,0 hPa 0,0 l/m 4,7 km/h (1 Bft) S 180 0 min 0,0 UV-I 0,4 C -0,5 C 4,3 km/h (1 Bft)
26.11.2011 02:50 2,7 C 9,5 C 2,7 C 2,2 C 1,1 C 0,0 C 84 % 87 % 0 % 1029,0 hPa 0,0 l/m 4,2 km/h (1 Bft) NW 315 0 min 0,0 UV-I 0,3 C 1,1 C 3,2 km/h (1 Bft)
26.11.2011 02:55 2,7 C 9,5 C 2,7 C 2,1 C 1,0 C 0,0 C 84 % 87 % 0 % 1029,0 hPa 0,0 l/m 4,0 km/h (1 Bft) S 180 0 min 0,0 UV-I 0,3 C 1,0 C 5,8 km/h (2 Bft)
26.11.2011 03:00 2,7 C 9,5 C 2,6 C 2,1 C 0,8 C 0,0 C 84 % 87 % 0 % 1028,0 hPa 0,0 l/m 4,3 km/h (1 Bft) SO 135 0 min 0,0 UV-I 0,3 C 0,8 C 9,3 km/h (2 Bft)
26.11.2011 03:04 2,7 C 9,5 C 2,7 C 2,1 C 0,9 C 0,0 C 84 % 87 % 0 % 1028,0 hPa 0,0 l/m 4,2 km/h (1 Bft) W-NW 292 0 min 0,0 UV-I 0,3 C 0,9 C 2,6 km/h (1 Bft)
26.11.2011 03:09 2,7 C 9,5 C 2,7 C 2,1 C 0,9 C 0,0 C 84 % 87 % 0 % 1028,0 hPa 0,0 l/m 4,2 km/h (1 Bft) W-SW 247 0 min 0,0 UV-I 0,3 C 0,9 C 4,3 km/h (1 Bft)
26.11.2011 03:14 2,6 C 9,5 C 2,6 C 2,0 C 0,8 C 0,0 C 85 % 87 % 0 % 1028,0 hPa 0,0 l/m 4,3 km/h (1 Bft) SW 225 0 min 0,0 UV-I 0,3 C 0,8 C 11,6 km/h (2 Bft)
26.11.2011 03:18 2,6 C 9,5 C 2,6 C 2,0 C 0,8 C 0,0 C 85 % 87 % 0 % 1028,0 hPa 0,0 l/m 4,3 km/h (1 Bft) SW 225 0 min 0,0 UV-I 0,3 C 0,8 C 11,6 km/h (2 Bft)
26.11.2011 03:25 2,6 C 9,5 C 2,5 C 1,8 C 0,3 C 0,0 C 85 % 87 % 0 % 1029,1 hPa 0,0 l/m 5,8 km/h (2 Bft) W-SW 247 0 min 0,0 UV-I 0,3 C -1,6 C 7,9 km/h (2 Bft)
26.11.2011 03:30 2,7 C 9,5 C 2,5 C 2,0 C 0,7 C 0,0 C 85 % 87 % 0 % 1029,1 hPa 0,0 l/m 4,8 km/h (1 Bft) O-NO 67 0 min 0,0 UV-I 0,4 C -0,7 C 2,7 km/h (1 Bft)
26.11.2011 03:35 2,8 C 9,5 C 2,7 C 2,1 C 0,7 C 0,0 C 85 % 87 % 0 % 1029,1 hPa 0,0 l/m 5,1 km/h (1 Bft) W 270 0 min 0,0 UV-I 0,5 C -0,8 C 9,7 km/h (2 Bft)
26.11.2011 03:40 2,9 C 9,5 C 2,7 C 2,2 C 0,8 C 0,0 C 85 % 87 % 0 % 1028,8 hPa 0,0 l/m 5,3 km/h (1 Bft) W-SW 247 0 min 0,0 UV-I 0,6 C -0,8 C 5,3 km/h (1 Bft)
26.11.2011 03:45 2,8 C 9,5 C 2,7 C 2,1 C 0,7 C 0,0 C 85 % 87 % 0 % 1028,8 hPa 0,0 l/m 5,8 km/h (2 Bft) W-SW 247 0 min 0,0 UV-I 0,5 C -1,1 C 11,7 km/h (2 Bft)
26.11.2011 03:50 3,1 C 9,5 C 2,8 C 2,2 C 0,4 C 0,0 C 85 % 87 % 0 % 1028,8 hPa 0,0 l/m 7,2 km/h (2 Bft) W-SW 247 0 min 0,0 UV-I 0,8 C -2,0 C 9,8 km/h (2 Bft)
26.11.2011 03:55 3,1 C 9,5 C 2,8 C 2,4 C 0,1 C 0,0 C 85 % 87 % 0 % 1028,8 hPa 0,0 l/m 10,1 km/h (2 Bft) W-SW 247 0 min 0,0 UV-I 0,8 C -3,2 C 14,5 km/h (3 Bft)
26.11.2011 04:00 3,1 C 9,5 C 2,9 C 2,5 C 0,3 C 0,0 C 84 % 87 % 0 % 1028,9 hPa 0,0 l/m 10,5 km/h (2 Bft) SW 225 0 min 0,0 UV-I 0,7 C -3,1 C 16,4 km/h (3 Bft)
26.11.2011 04:04 3,1 C 9,5 C 2,9 C 2,5 C 0,6 C 0,0 C 84 % 87 % 0 % 1028,9 hPa 0,0 l/m 9,5 km/h (2 Bft) W 270 0 min 0,0 UV-I 0,7 C -2,5 C 8,7 km/h (2 Bft)
26.11.2011 04:09 3,1 C 9,5 C 2,9 C 2,6 C 0,8 C 0,0 C 84 % 87 % 0 % 1028,9 hPa 0,0 l/m 8,4 km/h (2 Bft) SW 225 0 min 0,0 UV-I 0,7 C -1,9 C 11,3 km/h (2 Bft)
26.11.2011 04:14 3,2 C 9,5 C 3,1 C 2,7 C 1,0 C 0,0 C 84 % 87 % 0 % 1028,9 hPa 0,0 l/m 8,2 km/h (2 Bft) W-SW 247 0 min 0,0 UV-I 0,8 C -1,6 C 7,7 km/h (2 Bft)
26.11.2011 04:18 3,2 C 9,5 C 3,1 C 2,5 C 1,0 C 0,0 C 84 % 87 % 0 % 1028,9 hPa 0,0 l/m 8,2 km/h (2 Bft) W-SW 247 0 min 0,0 UV-I 0,8 C -1,6 C 7,7 km/h (2 Bft)
26.11.2011 04:25 3,2 C 9,5 C 3,0 C 2,6 C 0,4 C 0,0 C 84 % 86 % 0 % 1029,1 hPa 0,0 l/m 10,6 km/h (2 Bft) W-SW 247 0 min 0,0 UV-I 0,8 C -3,0 C 9,3 km/h (2 Bft)
26.11.2011 04:30 3,1 C 9,5 C 3,0 C 2,5 C 0,7 C 0,0 C 83 % 86 % 0 % 1029,1 hPa 0,0 l/m 9,3 km/h (2 Bft) W-SW 247 0 min 0,0 UV-I 0,5 C -2,3 C 4,5 km/h (1 Bft)
26.11.2011 04:35 3,2 C 9,5 C 3,1 C 2,5 C 1,2 C 0,0 C 84 % 86 % 0 % 1029,1 hPa 0,0 l/m 7,4 km/h (2 Bft) S-SW 202 0 min 0,0 UV-I 0,8 C -1,1 C 11,7 km/h (2 Bft)
26.11.2011 04:40 3,2 C 9,5 C 3,1 C 2,5 C 1,2 C 0,0 C 84 % 87 % 0 % 1029,6 hPa 0,0 l/m 7,2 km/h (2 Bft) W-SW 247 0 min 0,0 UV-I 0,8 C -1,1 C 9,0 km/h (2 Bft)
26.11.2011 04:45 3,3 C 9,5 C 3,1 C 2,8 C 0,9 C 0,0 C 84 % 87 % 0 % 1029,6 hPa 0,0 l/m 8,5 km/h (2 Bft) SO 135 0 min 0,0 UV-I 0,9 C -1,8 C 8,9 km/h (2 Bft)
26.11.2011 04:50 3,2 C 9,5 C 3,2 C 2,6 C 1,3 C 0,0 C 84 % 86 % 0 % 1029,6 hPa 0,0 l/m 6,9 km/h (2 Bft) N-NW 337 0 min 0,0 UV-I 0,8 C -0,9 C 6,9 km/h (2 Bft)
26.11.2011 04:55 3,3 C 9,5 C 3,2 C 2,8 C 1,7 C 0,0 C 83 % 86 % 0 % 1029,6 hPa 0,0 l/m 6,1 km/h (2 Bft) W 270 0 min 0,0 UV-I 0,7 C -0,1 C 4,8 km/h (1 Bft)
26.11.2011 05:00 3,3 C 9,5 C 3,2 C 2,7 C 1,4 C 0,0 C 83 % 86 % 0 % 1029,4 hPa 0,0 l/m 6,9 km/h (2 Bft) S-SO 157 0 min 0,0 UV-I 0,7 C -0,7 C 8,0 km/h (2 Bft)
26.11.2011 05:05 3,2 C 9,5 C 3,2 C 2,7 C 1,7 C 0,0 C 83 % 86 % 0 % 1029,4 hPa 0,0 l/m 5,8 km/h (2 Bft) SW 225 0 min 0,0 UV-I 0,6 C 0,0 C 8,4 km/h (2 Bft)
26.11.2011 05:10 3,2 C 9,5 C 3,1 C 2,6 C 1,3 C 0,0 C 83 % 86 % 0 % 1029,4 hPa 0,0 l/m 7,1 km/h (2 Bft) W 270 0 min 0,0 UV-I 0,6 C -0,9 C 7,4 km/h (2 Bft)
26.11.2011 05:15 3,3 C 9,5 C 3,1 C 2,5 C 0,9 C 0,0 C 83 % 86 % 0 % 1029,4 hPa 0,0 l/m 7,4 km/h (2 Bft) SW 225 0 min 0,0 UV-I 0,7 C -1,5 C 5,6 km/h (1 Bft)
26.11.2011 05:20 3,2 C 9,5 C 3,1 C 2,4 C 0,8 C 0,0 C 83 % 86 % 0 % 1029,4 hPa 0,0 l/m 7,1 km/h (2 Bft) S-SW 202 0 min 0,0 UV-I 0,6 C -1,5 C 7,9 km/h (2 Bft)
26.11.2011 05:25 3,2 C 9,5 C 3,1 C 2,5 C 1,1 C 0,0 C 84 % 86 % 0 % 1029,4 hPa 0,0 l/m 6,1 km/h (2 Bft) SW 225 0 min 0,0 UV-I 0,8 C -0,8 C 5,8 km/h (2 Bft)
26.11.2011 05:30 3,2 C 9,5 C 3,1 C 2,6 C 1,5 C 0,0 C 84 % 86 % 0 % 1029,4 hPa 0,0 l/m 5,1 km/h (1 Bft) W-SW 247 0 min 0,0 UV-I 0,8 C 0,1 C 5,6 km/h (1 Bft)
26.11.2011 05:35 3,3 C 9,5 C 3,1 C 2,7 C 1,5 C 0,0 C 84 % 87 % 0 % 1029,4 hPa 0,0 l/m 5,8 km/h (2 Bft) SW 225 0 min 0,0 UV-I 0,9 C -0,2 C 6,9 km/h (2 Bft)
26.11.2011 05:40 3,2 C 9,5 C 3,1 C 2,5 C 1,2 C 0,0 C 84 % 87 % 0 % 1029,6 hPa 0,0 l/m 6,6 km/h (2 Bft) W-SW 247 0 min 0,0 UV-I 0,8 C -0,9 C 9,5 km/h (2 Bft)
26.11.2011 05:45 3,3 C 9,5 C 3,1 C 2,7 C 1,6 C 0,0 C 84 % 87 % 0 % 1029,6 hPa 0,0 l/m 6,1 km/h (2 Bft) W-SW 247 0 min 0,0 UV-I 0,9 C -0,2 C 10,1 km/h (2 Bft)
26.11.2011 05:50 3,4 C 9,5 C 3,2 C 2,7 C 1,3 C 0,0 C 83 % 87 % 0 % 1029,6 hPa 0,0 l/m 7,1 km/h (2 Bft) W 270 0 min 0,0 UV-I 0,8 C -0,9 C 7,6 km/h (2 Bft)
26.11.2011 05:55 3,5 C 9,5 C 3,2 C 3,0 C 1,2 C 0,0 C 83 % 86 % 0 % 1029,6 hPa 0,0 l/m 7,9 km/h (2 Bft) SW 225 0 min 0,0 UV-I 0,9 C -1,3 C 12,1 km/h (2 Bft)
26.11.2011 06:00 3,5 C 9,5 C 3,3 C 2,8 C 1,4 C 0,0 C 83 % 86 % 0 % 1029,6 hPa 0,0 l/m 7,6 km/h (2 Bft) W-SW 247 0 min 0,0 UV-I 0,9 C -1,0 C 7,9 km/h (2 Bft)
26.11.2011 06:11 3,5 C 9,5 C 3,3 C 2,8 C 1,4 C 0,0 C 82 % 86 % 0 % 1029,6 hPa 0,0 l/m 7,6 km/h (2 Bft) N 0 0 min 0,0 UV-I 0,7 C -1,0 C 6,8 km/h (2 Bft)
26.11.2011 06:20 3,5 C 9,5 C 3,3 C 3,0 C 2,0 C 0,0 C 82 % 86 % 0 % 1029,8 hPa 0,0 l/m 5,3 km/h (1 Bft) SW 225 0 min 0,0 UV-I 0,7 C 0,6 C 9,3 km/h (2 Bft)
26.11.2011 06:25 3,5 C 9,5 C 3,3 C 2,9 C 1,8 C 0,0 C 82 % 86 % 0 % 1029,8 hPa 0,0 l/m 6,3 km/h (2 Bft) W-SW 247 0 min 0,0 UV-I 0,7 C -0,1 C 9,5 km/h (2 Bft)
26.11.2011 06:30 3,5 C 9,5 C 3,3 C 2,9 C 1,6 C 0,0 C 82 % 86 % 0 % 1029,8 hPa 0,0 l/m 6,9 km/h (2 Bft) SW 225 0 min 0,0 UV-I 0,7 C -0,5 C 4,8 km/h (1 Bft)
26.11.2011 06:35 3,5 C 9,5 C 3,2 C 3,0 C 2,0 C 0,0 C 82 % 86 % 0 % 1029,8 hPa 0,0 l/m 5,1 km/h (1 Bft) NW 315 0 min 0,0 UV-I 0,7 C 0,6 C 0,0 km/h (0 Bft)
26.11.2011 06:40 3,5 C 9,5 C 3,3 C 3,2 C 2,5 C 0,0 C 82 % 86 % 0 % 1029,6 hPa 0,0 l/m 3,4 km/h (1 Bft) S-SW 202 0 min 0,0 UV-I 0,7 C 2,5 C 2,7 km/h (1 Bft)
26.11.2011 06:45 3,3 C 9,5 C 3,2 C 2,9 C 2,1 C 0,0 C 82 % 86 % 0 % 1029,6 hPa 0,0 l/m 3,9 km/h (1 Bft) SW 225 0 min 0,0 UV-I 0,5 C 2,1 C 5,3 km/h (1 Bft)
26.11.2011 06:50 3,4 C 9,5 C 3,2 C 2,8 C 1,5 C 0,0 C 83 % 86 % 0 % 1029,6 hPa 0,0 l/m 5,1 km/h (1 Bft) SW 225 0 min 0,0 UV-I 0,8 C 0,1 C 5,5 km/h (1 Bft)
26.11.2011 06:55 3,5 C 9,5 C 3,3 C 2,7 C 1,2 C 0,0 C 83 % 86 % 0 % 1029,6 hPa 0,0 l/m 7,1 km/h (2 Bft) W-SW 247 0 min 0,0 UV-I 0,9 C -1,0 C 12,6 km/h (3 Bft)
26.11.2011 07:00 3,5 C 9,5 C 3,2 C 2,9 C 1,0 C 0,0 C 83 % 86 % 0 % 1030,3 hPa 0,0 l/m 8,2 km/h (2 Bft) W-SW 247 0 min 0,0 UV-I 0,9 C -1,6 C 15,0 km/h (3 Bft)
26.11.2011 07:04 3,7 C 9,5 C 3,3 C 2,9 C 0,8 C 0,0 C 83 % 86 % 0 % 1030,3 hPa 0,0 l/m 9,2 km/h (2 Bft) SW 225 0 min 0,0 UV-I 1,1 C -2,1 C 15,3 km/h (3 Bft)
26.11.2011 07:09 3,7 C 9,5 C 3,3 C 3,1 C 1,2 C 0,0 C 83 % 86 % 0 % 1030,3 hPa 0,0 l/m 8,0 km/h (2 Bft) W-SW 247 0 min 0,0 UV-I 1,1 C -1,3 C 7,7 km/h (2 Bft)
26.11.2011 07:14 3,7 C 9,5 C 3,4 C 2,9 C 1,3 C 0,0 C 83 % 86 % 0 % 1030,3 hPa 0,0 l/m 7,2 km/h (2 Bft) S 180 0 min 0,0 UV-I 1,1 C -1,0 C 10,5 km/h (2 Bft)
26.11.2011 07:18 3,7 C 9,5 C 3,4 C 2,9 C 1,3 C 0,0 C 83 % 86 % 0 % 1030,3 hPa 0,0 l/m 7,2 km/h (2 Bft) S 180 0 min 0,0 UV-I 1,1 C -1,0 C 10,5 km/h (2 Bft)
26.11.2011 07:25 3,7 C 9,5 C 3,5 C 2,9 C 1,3 C 0,0 C 82 % 86 % 0 % 1030,3 hPa 0,0 l/m 8,2 km/h (2 Bft) W-SW 247 0 min 0,0 UV-I 0,9 C -1,3 C 9,3 km/h (2 Bft)
26.11.2011 07:30 3,7 C 9,5 C 3,5 C 3,2 C 1,6 C 0,0 C 83 % 86 % 0 % 1030,3 hPa 0,0 l/m 8,2 km/h (2 Bft) W-SW 247 0 min 0,0 UV-I 1,1 C -0,9 C 13,7 km/h (3 Bft)
26.11.2011 07:35 3,6 C 9,5 C 3,5 C 3,1 C 1,3 C 0,0 C 83 % 86 % 0 % 1030,3 hPa 0,0 l/m 9,2 km/h (2 Bft) SW 225 0 min 0,0 UV-I 1,0 C -1,6 C 11,6 km/h (2 Bft)
26.11.2011 07:40 3,6 C 9,5 C 3,6 C 2,8 C 1,3 C 0,0 C 83 % 86 % 0 % 1030,6 hPa 0,0 l/m 9,7 km/h (2 Bft) W-SW 247 0 min 0,0 UV-I 1,0 C -1,7 C 14,2 km/h (3 Bft)
26.11.2011 07:45 3,7 C 9,5 C 3,5 C 3,2 C 1,4 C 0,0 C 82 % 85 % 0 % 1030,6 hPa 0,0 l/m 8,9 km/h (2 Bft) SW 225 0 min 0,0 UV-I 0,9 C -1,4 C 12,6 km/h (3 Bft)
26.11.2011 07:50 3,7 C 9,5 C 3,5 C 2,9 C 1,4 C 0,0 C 82 % 86 % 0 % 1030,6 hPa 0,0 l/m 8,4 km/h (2 Bft) O-SO 112 0 min 0,0 UV-I 0,9 C -1,2 C 7,1 km/h (2 Bft)
26.11.2011 07:55 3,7 C 9,5 C 3,4 C 3,1 C 1,3 C 0,0 C 82 % 85 % 0 % 1030,6 hPa 0,0 l/m 7,7 km/h (2 Bft) SW 225 0 min 0,0 UV-I 0,9 C -1,1 C 13,8 km/h (3 Bft)
26.11.2011 08:00 3,6 C 9,5 C 3,4 C 2,9 C 1,5 C 0,0 C 82 % 86 % 0 % 1030,9 hPa 0,0 l/m 6,6 km/h (2 Bft) W 270 0 min 0,0 UV-I 0,8 C -0,5 C 3,4 km/h (1 Bft)
26.11.2011 08:04 3,7 C 9,5 C 3,6 C 3,1 C 1,8 C 0,0 C 83 % 86 % 0 % 1030,9 hPa 0,0 l/m 6,8 km/h (2 Bft) SW 225 0 min 0,0 UV-I 1,1 C -0,2 C 4,7 km/h (1 Bft)
26.11.2011 08:09 3,7 C 9,5 C 3,6 C 3,3 C 1,7 C 0,0 C 83 % 86 % 0 % 1030,9 hPa 0,0 l/m 7,7 km/h (2 Bft) S 180 0 min 0,0 UV-I 1,1 C -0,7 C 8,4 km/h (2 Bft)
26.11.2011 08:14 3,9 C 9,5 C 3,6 C 3,4 C 1,4 C 0,0 C 83 % 86 % 0 % 1030,9 hPa 0,0 l/m 9,0 km/h (2 Bft) W-SW 247 0 min 0,0 UV-I 1,3 C -1,4 C 5,5 km/h (1 Bft)
26.11.2011 08:18 3,9 C 9,5 C 3,6 C 3,1 C 1,4 C 0,0 C 83 % 86 % 0 % 1030,9 hPa 0,0 l/m 9,0 km/h (2 Bft) W-SW 247 0 min 0,0 UV-I 1,3 C -1,4 C 5,5 km/h (1 Bft)
26.11.2011 08:25 3,8 C 9,5 C 3,7 C 3,3 C 1,3 C 0,0 C 83 % 86 % 0 % 1030,1 hPa 0,0 l/m 9,5 km/h (2 Bft) W-SW 247 0 min 0,0 UV-I 1,2 C -1,6 C 26,2 km/h (4 Bft)
26.11.2011 08:30 3,9 C 9,5 C 3,7 C 3,3 C 1,4 C 0,0 C 83 % 86 % 0 % 1030,1 hPa 0,0 l/m 8,9 km/h (2 Bft) W-SW 247 0 min 0,0 UV-I 1,3 C -1,4 C 10,6 km/h (2 Bft)
26.11.2011 08:35 3,9 C 9,5 C 3,7 C 3,4 C 1,7 C 0,0 C 83 % 86 % 0 % 1030,1 hPa 0,0 l/m 8,0 km/h (2 Bft) SW 225 0 min 0,0 UV-I 1,3 C -0,7 C 11,1 km/h (2 Bft)
26.11.2011 08:40 3,9 C 9,5 C 3,8 C 3,4 C 1,8 C 0,0 C 83 % 86 % 0 % 1031,1 hPa 0,0 l/m 8,0 km/h (2 Bft) NW 315 0 min 0,0 UV-I 1,3 C -0,6 C 15,4 km/h (3 Bft)
26.11.2011 08:45 4,0 C 9,5 C 3,9 C 3,3 C 1,8 C 0,0 C 83 % 86 % 0 % 1031,1 hPa 0,0 l/m 10,0 km/h (2 Bft) W-SW 247 0 min 0,0 UV-I 1,4 C -1,2 C 11,7 km/h (2 Bft)
26.11.2011 08:50 4,1 C 9,5 C 3,9 C 3,6 C 1,7 C 0,0 C 83 % 86 % 0 % 1031,1 hPa 0,0 l/m 10,6 km/h (2 Bft) W-SW 247 0 min 0,0 UV-I 1,5 C -1,4 C 13,2 km/h (3 Bft)
26.11.2011 08:55 4,1 C 9,5 C 3,9 C 3,6 C 1,9 C 0,0 C 83 % 86 % 0 % 1031,1 hPa 0,0 l/m 9,7 km/h (2 Bft) W-SW 247 0 min 0,0 UV-I 1,5 C -1,0 C 12,6 km/h (3 Bft)
26.11.2011 08:59 4,1 C 9,5 C 4,0 C 3,4 C 1,9 C 0,0 C 83 % 86 % 0 % 1030,5 hPa 0,0 l/m 10,3 km/h (2 Bft) SW 225 0 min 0,0 UV-I 1,5 C -1,1 C 13,4 km/h (3 Bft)
26.11.2011 09:02 4,1 C 9,5 C 4,0 C 3,4 C 1,9 C 0,0 C 83 % 86 % 0 % 1030,5 hPa 0,0 l/m 10,3 km/h (2 Bft) SW 225 0 min 0,0 UV-I 1,5 C -1,1 C 13,4 km/h (3 Bft)
26.11.2011 09:05 4,2 C 9,5 C 4,0 C 3,7 C 1,8 C 0,0 C 83 % 86 % 0 % 1030,5 hPa 0,0 l/m 11,4 km/h (2 Bft) W-SW 247 0 min 0,0 UV-I 1,6 C -1,5 C 12,7 km/h (3 Bft)
26.11.2011 09:10 4,2 C 9,5 C 4,3 C 3,8 C 2,1 C 0,0 C 83 % 86 % 0 % 1030,5 hPa 0,0 l/m 12,1 km/h (2 Bft) S-SW 202 0 min 0,0 UV-I 1,6 C -1,3 C 11,4 km/h (2 Bft)
26.11.2011 09:15 4,4 C 9,5 C 4,3 C 4,0 C 2,5 C 0,0 C 83 % 86 % 0 % 1030,5 hPa 0,0 l/m 11,3 km/h (2 Bft) W-SW 247 0 min 0,0 UV-I 1,8 C -0,6 C 15,3 km/h (3 Bft)
26.11.2011 09:20 4,4 C 9,5 C 4,4 C 4,1 C 2,8 C 0,0 C 83 % 86 % 0 % 1031,4 hPa 0,0 l/m 10,9 km/h (2 Bft) W-SW 247 0 min 0,0 UV-I 1,8 C -0,2 C 9,7 km/h (2 Bft)
26.11.2011 09:25 4,5 C 9,5 C 4,4 C 4,2 C 2,7 C 0,0 C 83 % 86 % 0 % 1031,4 hPa 0,0 l/m 11,1 km/h (2 Bft) S-SO 157 0 min 0,0 UV-I 1,9 C -0,3 C 13,4 km/h (3 Bft)
26.11.2011 09:30 4,6 C 9,5 C 4,4 C 4,3 C 2,8 C 0,0 C 83 % 86 % 0 % 1031,4 hPa 0,0 l/m 10,9 km/h (2 Bft) SW 225 0 min 0,0 UV-I 2,0 C -0,2 C 9,7 km/h (2 Bft)
26.11.2011 09:35 4,7 C 9,5 C 4,5 C 4,4 C 3,1 C 0,0 C 83 % 86 % 0 % 1031,4 hPa 0,0 l/m 9,7 km/h (2 Bft) SW 225 0 min 0,0 UV-I 2,1 C 0,5 C 15,9 km/h (3 Bft)
26.11.2011 09:40 4,6 C 9,5 C 4,7 C 4,4 C 3,2 C 0,0 C 83 % 86 % 0 % 1031,4 hPa 0,0 l/m 9,2 km/h (2 Bft) W-SW 247 0 min 0,0 UV-I 2,0 C 0,7 C 10,8 km/h (2 Bft)
26.11.2011 09:45 4,7 C 9,5 C 4,6 C 4,4 C 3,4 C 0,0 C 83 % 86 % 0 % 1031,4 hPa 0,0 l/m 8,0 km/h (2 Bft) NW 315 0 min 0,0 UV-I 2,1 C 1,3 C 9,7 km/h (2 Bft)
26.11.2011 09:50 4,7 C 9,5 C 4,6 C 4,5 C 3,3 C 0,0 C 83 % 85 % 0 % 1031,4 hPa 0,0 l/m 8,5 km/h (2 Bft) W 270 0 min 0,0 UV-I 2,1 C 1,0 C 16,1 km/h (3 Bft)
26.11.2011 09:55 4,8 C 9,5 C 4,7 C 4,5 C 3,1 C 0,0 C 83 % 85 % 0 % 1031,4 hPa 0,0 l/m 10,1 km/h (2 Bft) SW 225 0 min 0,0 UV-I 2,2 C 0,4 C 9,8 km/h (2 Bft)
26.11.2011 10:00 4,8 C 9,5 C 4,7 C 4,4 C 2,8 C 0,0 C 82 % 85 % 0 % 1030,9 hPa 0,0 l/m 10,6 km/h (2 Bft) W 270 0 min 0,0 UV-I 2,0 C -0,1 C 12,7 km/h (3 Bft)
26.11.2011 10:12 4,9 C 9,5 C 4,9 C 4,6 C 3,2 C 0,0 C 82 % 85 % 0 % 1030,9 hPa 0,0 l/m 11,9 km/h (2 Bft) N 0 0 min 0,0 UV-I 2,1 C 0,1 C 16,4 km/h (3 Bft)
26.11.2011 10:20 5,1 C 9,5 C 5,0 C 4,8 C 3,7 C 0,0 C 82 % 85 % 0 % 1030,9 hPa 0,0 l/m 9,3 km/h (2 Bft) SW 225 0 min 0,0 UV-I 2,3 C 1,3 C 8,4 km/h (2 Bft)
26.11.2011 10:25 5,2 C 9,4 C 5,1 C 5,0 C 4,1 C 0,0 C 82 % 85 % 0 % 1030,9 hPa 0,0 l/m 9,0 km/h (2 Bft) W-SW 247 0 min 0,0 UV-I 2,4 C 1,8 C 11,6 km/h (2 Bft)
26.11.2011 10:30 5,3 C 9,4 C 5,2 C 5,1 C 4,2 C 0,0 C 82 % 85 % 0 % 1030,9 hPa 0,0 l/m 8,9 km/h (2 Bft) W-SW 247 0 min 0,0 UV-I 2,5 C 2,0 C 15,0 km/h (3 Bft)
26.11.2011 10:35 5,4 C 9,4 C 5,2 C 5,2 C 4,3 C 0,0 C 82 % 85 % 0 % 1030,9 hPa 0,0 l/m 9,2 km/h (2 Bft) S-SW 202 0 min 0,0 UV-I 2,6 C 2,0 C 14,2 km/h (3 Bft)
26.11.2011 10:40 5,5 C 9,4 C 5,4 C 5,4 C 4,6 C 0,0 C 82 % 85 % 0 % 1031,5 hPa 0,0 l/m 8,7 km/h (2 Bft) O-SO 112 0 min 0,0 UV-I 2,7 C 2,5 C 13,0 km/h (3 Bft)
26.11.2011 10:45 5,6 C 9,4 C 5,6 C 5,5 C 4,9 C 0,0 C 81 % 84 % 0 % 1031,5 hPa 0,0 l/m 8,9 km/h (2 Bft) S-SO 157 0 min 0,0 UV-I 2,6 C 2,8 C 4,5 km/h (1 Bft)
26.11.2011 10:50 5,7 C 9,4 C 5,6 C 5,4 C 4,9 C 0,0 C 81 % 84 % 0 % 1031,5 hPa 0,0 l/m 9,3 km/h (2 Bft) SW 225 0 min 0,0 UV-I 2,7 C 2,7 C 9,8 km/h (2 Bft)
26.11.2011 10:55 5,9 C 9,4 C 5,9 C 5,8 C 5,2 C 0,0 C 81 % 84 % 0 % 1031,5 hPa 0,0 l/m 8,5 km/h (2 Bft) SW 225 0 min 0,0 UV-I 2,9 C 3,2 C 14,2 km/h (3 Bft)
26.11.2011 11:00 5,9 C 9,4 C 5,9 C 5,7 C 5,2 C 0,0 C 81 % 84 % 0 % 1030,6 hPa 0,0 l/m 9,2 km/h (2 Bft) W-SW 247 0 min 0,0 UV-I 2,9 C 3,1 C 7,6 km/h (2 Bft)
26.11.2011 11:04 6,1 C 9,4 C 6,0 C 5,5 C 5,3 C 0,0 C 80 % 83 % 0 % 1030,6 hPa 0,0 l/m 10,0 km/h (2 Bft) S 180 0 min 0,0 UV-I 2,9 C 3,0 C 10,0 km/h (2 Bft)
26.11.2011 11:09 6,0 C 9,5 C 6,0 C 6,0 C 5,5 C 0,0 C 80 % 83 % 0 % 1030,6 hPa 0,0 l/m 9,5 km/h (2 Bft) W-SW 247 0 min 0,0 UV-I 2,8 C 3,4 C 19,6 km/h (3 Bft)
26.11.2011 11:14 6,3 C 9,5 C 6,2 C 6,0 C 5,5 C 0,0 C 80 % 83 % 0 % 1030,6 hPa 0,0 l/m 10,0 km/h (2 Bft) S-SW 202 0 min 0,0 UV-I 3,1 C 3,3 C 13,5 km/h (3 Bft)
26.11.2011 11:18 6,3 C 9,5 C 6,2 C 6,0 C 5,5 C 0,0 C 80 % 83 % 0 % 1030,6 hPa 0,0 l/m 10,0 km/h (2 Bft) S-SW 202 0 min 0,0 UV-I 3,1 C 3,3 C 13,5 km/h (3 Bft)
26.11.2011 11:25 6,4 C 9,5 C 6,4 C 6,2 C 4,9 C 0,0 C 79 % 82 % 0 % 1031,1 hPa 0,0 l/m 13,5 km/h (3 Bft) W-SW 247 0 min 0,0 UV-I 3,0 C 1,9 C 20,4 km/h (4 Bft)
26.11.2011 11:30 6,4 C 9,5 C 6,4 C 5,9 C 4,9 C 0,0 C 78 % 81 % 0 % 1031,1 hPa 0,0 l/m 13,4 km/h (3 Bft) W 270 0 min 0,0 UV-I 2,8 C 1,9 C 10,6 km/h (2 Bft)
26.11.2011 11:35 6,4 C 9,5 C 6,4 C 6,2 C 4,8 C 0,0 C 78 % 81 % 0 % 1031,1 hPa 0,0 l/m 14,2 km/h (3 Bft) W-SW 247 0 min 0,0 UV-I 2,8 C 1,6 C 21,1 km/h (4 Bft)
26.11.2011 11:40 6,4 C 9,5 C 6,5 C 6,1 C 4,7 C 0,0 C 78 % 81 % 0 % 1030,4 hPa 0,0 l/m 14,6 km/h (3 Bft) W-SW 247 0 min 0,0 UV-I 2,8 C 1,4 C 15,6 km/h (3 Bft)
26.11.2011 11:45 6,4 C 9,5 C 6,5 C 6,2 C 5,0 C 0,0 C 78 % 81 % 0 % 1030,4 hPa 0,0 l/m 12,9 km/h (3 Bft) W-SW 247 0 min 0,0 UV-I 2,8 C 2,1 C 18,2 km/h (3 Bft)
26.11.2011 11:50 6,5 C 9,5 C 6,6 C 6,3 C 5,2 C 0,0 C 78 % 81 % 0 % 1030,4 hPa 0,0 l/m 11,9 km/h (2 Bft) W-SW 247 0 min 0,0 UV-I 2,9 C 2,5 C 14,8 km/h (3 Bft)
26.11.2011 11:55 6,5 C 9,5 C 6,6 C 6,3 C 5,1 C 0,0 C 78 % 80 % 0 % 1030,4 hPa 0,0 l/m 12,2 km/h (2 Bft) SW 225 0 min 0,0 UV-I 2,9 C 2,3 C 15,9 km/h (3 Bft)
26.11.2011 12:00 6,5 C 9,5 C 6,7 C 6,3 C 5,2 C 0,0 C 78 % 80 % 0 % 1030,4 hPa 0,0 l/m 11,9 km/h (2 Bft) S 180 0 min 0,0 UV-I 2,9 C 2,5 C 12,1 km/h (2 Bft)
26.11.2011 12:12 6,7 C 9,5 C 6,7 C 6,5 C 5,6 C 0,0 C 78 % 80 % 0 % 1030,4 hPa 0,0 l/m 10,8 km/h (2 Bft) N 0 0 min 0,0 UV-I 3,1 C 3,2 C 7,1 km/h (2 Bft)
26.11.2011 12:20 6,6 C 9,5 C 6,7 C 6,3 C 5,6 C 0,0 C 77 % 80 % 0 % 1029,8 hPa 0,0 l/m 10,5 km/h (2 Bft) W-SW 247 0 min 0,0 UV-I 2,9 C 3,3 C 8,4 km/h (2 Bft)
26.11.2011 12:25 6,7 C 9,5 C 6,7 C 6,6 C 6,1 C 0,0 C 77 % 80 % 0 % 1029,8 hPa 0,0 l/m 7,9 km/h (2 Bft) SW 225 0 min 0,0 UV-I 3,0 C 4,5 C 15,0 km/h (3 Bft)
26.11.2011 12:30 6,7 C 9,5 C 6,8 C 6,6 C 6,4 C 0,0 C 77 % 80 % 0 % 1029,8 hPa 0,0 l/m 6,9 km/h (2 Bft) W-SW 247 0 min 0,0 UV-I 3,0 C 5,1 C 4,8 km/h (1 Bft)
26.11.2011 12:35 6,7 C 9,5 C 6,8 C 6,6 C 6,4 C 0,0 C 77 % 80 % 0 % 1029,8 hPa 0,0 l/m 7,7 km/h (2 Bft) W 270 0 min 0,0 UV-I 3,0 C 4,9 C 3,5 km/h (1 Bft)
26.11.2011 12:40 6,8 C 9,5 C 6,8 C 6,7 C 6,4 C 0,0 C 77 % 80 % 0 % 1029,8 hPa 0,0 l/m 8,7 km/h (2 Bft) W 270 0 min 0,0 UV-I 3,1 C 4,6 C 11,6 km/h (2 Bft)
26.11.2011 12:45 6,8 C 9,6 C 6,9 C 6,9 C 6,9 C 0,1 C 77 % 80 % 3 % 1029,8 hPa 0,0 l/m 7,2 km/h (2 Bft) S-SW 202 0 min 0,0 UV-I 3,1 C 5,6 C 13,0 km/h (3 Bft)
26.11.2011 12:50 6,9 C 9,6 C 7,1 C 7,3 C 7,3 C 0,4 C 77 % 80 % 11 % 1029,8 hPa 0,0 l/m 6,4 km/h (2 Bft) NW 315 0 min 0,0 UV-I 3,2 C 6,3 C 5,0 km/h (1 Bft)
26.11.2011 12:55 6,9 C 9,6 C 7,1 C 7,4 C 6,8 C 0,5 C 76 % 79 % 13 % 1029,8 hPa 0,0 l/m 8,5 km/h (2 Bft) SW 225 0 min 0,0 UV-I 3,0 C 5,1 C 18,2 km/h (3 Bft)
26.11.2011 13:00 6,9 C 9,6 C 7,1 C 7,2 C 6,7 C 0,3 C 76 % 79 % 8 % 1030,1 hPa 0,0 l/m 8,9 km/h (2 Bft) W 270 0 min 0,0 UV-I 3,0 C 4,9 C 6,4 km/h (2 Bft)
26.11.2011 13:12 6,9 C 9,6 C 7,1 C 6,9 C 5,8 C 0,0 C 76 % 79 % 0 % 1030,1 hPa 0,0 l/m 11,7 km/h (2 Bft) N 0 0 min 0,0 UV-I 3,0 C 3,3 C 17,7 km/h (3 Bft)
26.11.2011 13:20 7,0 C 9,6 C 7,2 C 6,9 C 6,4 C 0,0 C 76 % 78 % 0 % 1029,4 hPa 0,0 l/m 10,5 km/h (2 Bft) SW 225 0 min 0,0 UV-I 3,1 C 4,2 C 10,9 km/h (2 Bft)
26.11.2011 13:25 7,0 C 9,6 C 7,3 C 7,4 C 7,2 C 0,4 C 75 % 78 % 11 % 1029,4 hPa 0,0 l/m 8,4 km/h (2 Bft) SW 225 0 min 0,0 UV-I 2,9 C 5,6 C 16,9 km/h (3 Bft)
26.11.2011 13:30 7,1 C 9,6 C 7,2 C 7,7 C 7,1 C 0,6 C 75 % 78 % 16 % 1029,4 hPa 0,0 l/m 9,7 km/h (2 Bft) SW 225 0 min 0,0 UV-I 3,0 C 5,2 C 17,7 km/h (3 Bft)
26.11.2011 13:35 6,9 C 9,6 C 7,2 C 7,1 C 6,2 C 0,2 C 75 % 78 % 5 % 1029,4 hPa 0,0 l/m 10,9 km/h (2 Bft) SW 225 0 min 0,0 UV-I 2,8 C 3,9 C 19,6 km/h (3 Bft)
26.11.2011 13:40 6,8 C 9,6 C 7,1 C 6,7 C 5,8 C 0,0 C 75 % 78 % 0 % 1029,5 hPa 0,0 l/m 10,8 km/h (2 Bft) SO 135 0 min 0,0 UV-I 2,7 C 3,5 C 13,2 km/h (3 Bft)
26.11.2011 13:45 6,8 C 9,6 C 6,8 C 6,6 C 5,2 C 0,0 C 75 % 78 % 0 % 1029,5 hPa 0,0 l/m 11,7 km/h (2 Bft) W-NW 292 0 min 0,0 UV-I 2,7 C 2,6 C 7,6 km/h (2 Bft)
26.11.2011 13:50 6,7 C 9,6 C 6,9 C 6,2 C 5,2 C 0,0 C 75 % 78 % 0 % 1029,5 hPa 0,0 l/m 11,4 km/h (2 Bft) W 270 0 min 0,0 UV-I 2,6 C 2,6 C 14,2 km/h (3 Bft)
26.11.2011 13:55 6,7 C 9,6 C 6,8 C 6,4 C 5,1 C 0,0 C 75 % 78 % 0 % 1029,5 hPa 0,0 l/m 11,4 km/h (2 Bft) SW 225 0 min 0,0 UV-I 2,6 C 2,5 C 17,4 km/h (3 Bft)
26.11.2011 14:00 6,6 C 9,6 C 6,8 C 6,1 C 5,1 C 0,0 C 75 % 78 % 0 % 1029,5 hPa 0,0 l/m 11,6 km/h (2 Bft) SW 225 0 min 0,0 UV-I 2,5 C 2,5 C 5,1 km/h (1 Bft)
26.11.2011 14:14 6,6 C 9,7 C 6,7 C 6,4 C 5,7 C 0,0 C 75 % 78 % 0 % 1029,5 hPa 0,0 l/m 8,5 km/h (2 Bft) W-SW 247 0 min 0,0 UV-I 2,5 C 3,8 C 10,3 km/h (2 Bft)
26.11.2011 14:16 6,6 C 9,7 C 6,7 C 5,8 C 5,7 C 0,0 C 75 % 78 % 0 % 1029,5 hPa 0,0 l/m 8,5 km/h (2 Bft) W-SW 247 0 min 0,0 UV-I 2,5 C 3,8 C 10,3 km/h (2 Bft)
26.11.2011 14:20 6,7 C 9,7 C 6,7 C 6,4 C 5,7 C 0,0 C 75 % 78 % 0 % 1028,9 hPa 0,0 l/m 8,4 km/h (2 Bft) O-SO 112 0 min 0,0 UV-I 2,6 C 3,9 C 8,2 km/h (2 Bft)
26.11.2011 14:25 6,7 C 9,7 C 6,7 C 6,4 C 5,7 C 0,0 C 75 % 78 % 0 % 1028,9 hPa 0,0 l/m 8,4 km/h (2 Bft) S-SO 157 0 min 0,0 UV-I 2,6 C 3,9 C 9,7 km/h (2 Bft)
26.11.2011 14:30 6,6 C 9,7 C 6,6 C 6,3 C 5,7 C 0,0 C 75 % 78 % 0 % 1028,9 hPa 0,0 l/m 8,2 km/h (2 Bft) W-SW 247 0 min 0,0 UV-I 2,5 C 3,9 C 9,7 km/h (2 Bft)
26.11.2011 14:35 6,6 C 9,7 C 6,7 C 6,4 C 5,2 C 0,0 C 75 % 78 % 0 % 1028,9 hPa 0,0 l/m 10,6 km/h (2 Bft) W 270 0 min 0,0 UV-I 2,5 C 2,8 C 11,3 km/h (2 Bft)
26.11.2011 14:40 6,6 C 9,7 C 6,5 C 6,3 C 5,0 C 0,0 C 75 % 79 % 0 % 1029,3 hPa 0,0 l/m 10,8 km/h (2 Bft) S 180 0 min 0,0 UV-I 2,5 C 2,5 C 15,9 km/h (3 Bft)
26.11.2011 14:45 6,6 C 9,7 C 6,5 C 6,3 C 5,2 C 0,0 C 75 % 79 % 0 % 1029,3 hPa 0,0 l/m 10,0 km/h (2 Bft) W-NW 292 0 min 0,0 UV-I 2,5 C 2,9 C 8,2 km/h (2 Bft)
26.11.2011 14:50 6,5 C 9,7 C 6,6 C 6,2 C 5,0 C 0,0 C 75 % 79 % 0 % 1029,3 hPa 0,0 l/m 10,1 km/h (2 Bft) S-SW 202 0 min 0,0 UV-I 2,4 C 2,6 C 16,4 km/h (3 Bft)
26.11.2011 14:55 6,5 C 9,7 C 6,5 C 6,2 C 5,1 C 0,0 C 76 % 79 % 0 % 1029,3 hPa 0,0 l/m 9,3 km/h (2 Bft) W-SW 247 0 min 0,0 UV-I 2,6 C 2,9 C 4,2 km/h (1 Bft)
26.11.2011 15:00 6,5 C 9,7 C 6,4 C 6,3 C 5,3 C 0,0 C 76 % 79 % 0 % 1029,3 hPa 0,0 l/m 8,2 km/h (2 Bft) SW 225 0 min 0,0 UV-I 2,6 C 3,4 C 7,7 km/h (2 Bft)
26.11.2011 15:11 6,5 C 9,7 C 6,5 C 6,2 C 4,9 C 0,0 C 76 % 79 % 0 % 1029,3 hPa 0,0 l/m 9,8 km/h (2 Bft) N 0 0 min 0,0 UV-I 2,6 C 2,6 C 14,8 km/h (3 Bft)
26.11.2011 15:20 6,5 C 9,7 C 6,5 C 6,3 C 5,5 C 0,0 C 76 % 79 % 0 % 1029,3 hPa 0,0 l/m 7,7 km/h (2 Bft) SW 225 0 min 0,0 UV-I 2,6 C 3,8 C 12,2 km/h (2 Bft)
26.11.2011 15:25 6,5 C 9,9 C 6,5 C 6,1 C 5,4 C 0,0 C 76 % 79 % 0 % 1029,3 hPa 0,0 l/m 7,6 km/h (2 Bft) SO 135 0 min 0,0 UV-I 2,6 C 3,7 C 13,7 km/h (3 Bft)
26.11.2011 15:30 6,5 C 9,9 C 6,4 C 6,1 C 5,4 C 0,0 C 76 % 79 % 0 % 1029,3 hPa 0,0 l/m 7,6 km/h (2 Bft) W 270 0 min 0,0 UV-I 2,6 C 3,7 C 9,7 km/h (2 Bft)
26.11.2011 15:35 6,4 C 9,9 C 6,5 C 6,0 C 5,3 C 0,0 C 76 % 79 % 0 % 1029,3 hPa 0,0 l/m 7,4 km/h (2 Bft) W-SW 247 0 min 0,0 UV-I 2,5 C 3,6 C 7,9 km/h (2 Bft)
26.11.2011 15:40 6,4 C 9,9 C 6,4 C 6,0 C 5,2 C 0,0 C 77 % 79 % 0 % 1028,6 hPa 0,0 l/m 7,6 km/h (2 Bft) W-SW 247 0 min 0,0 UV-I 2,7 C 3,5 C 12,1 km/h (2 Bft)
26.11.2011 15:45 6,4 C 9,9 C 6,3 C 6,0 C 5,3 C 0,0 C 77 % 79 % 0 % 1028,6 hPa 0,0 l/m 6,9 km/h (2 Bft) W 270 0 min 0,0 UV-I 2,7 C 3,8 C 4,2 km/h (1 Bft)
26.11.2011 15:50 6,3 C 9,9 C 6,2 C 6,0 C 5,3 C 0,0 C 77 % 79 % 0 % 1028,6 hPa 0,0 l/m 6,0 km/h (2 Bft) W-SW 247 0 min 0,0 UV-I 2,6 C 4,1 C 14,2 km/h (3 Bft)
26.11.2011 15:55 6,3 C 9,9 C 6,1 C 5,8 C 4,8 C 0,0 C 77 % 80 % 0 % 1028,6 hPa 0,0 l/m 6,6 km/h (2 Bft) W-NW 292 0 min 0,0 UV-I 2,6 C 3,3 C 6,9 km/h (2 Bft)
26.11.2011 16:00 6,2 C 9,9 C 6,1 C 5,7 C 4,6 C 0,0 C 77 % 80 % 0 % 1028,6 hPa 0,0 l/m 6,9 km/h (2 Bft) SW 225 0 min 0,0 UV-I 2,5 C 3,0 C 11,1 km/h (2 Bft)
26.11.2011 16:04 6,0 C 9,9 C 5,9 C 5,5 C 4,6 C 0,0 C 78 % 80 % 0 % 1028,6 hPa 0,0 l/m 6,0 km/h (2 Bft) W-SW 247 0 min 0,0 UV-I 2,5 C 3,3 C 6,9 km/h (2 Bft)
26.11.2011 16:09 6,0 C 9,9 C 5,9 C 5,6 C 4,7 C 0,0 C 78 % 81 % 0 % 1028,6 hPa 0,0 l/m 5,6 km/h (1 Bft) SO 135 0 min 0,0 UV-I 2,5 C 3,5 C 4,5 km/h (1 Bft)
26.11.2011 16:14 5,9 C 9,9 C 5,9 C 5,6 C 4,9 C 0,0 C 78 % 81 % 0 % 1028,6 hPa 0,0 l/m 4,7 km/h (1 Bft) NO 45 0 min 0,0 UV-I 2,4 C 4,1 C 11,1 km/h (2 Bft)
26.11.2011 16:18 5,9 C 9,9 C 5,9 C 5,6 C 4,9 C 0,0 C 78 % 81 % 0 % 1028,6 hPa 0,0 l/m 4,7 km/h (1 Bft) NO 45 0 min 0,0 UV-I 2,4 C 4,1 C 11,1 km/h (2 Bft)
26.11.2011 16:25 5,8 C 9,9 C 5,7 C 5,3 C 4,4 C 0,0 C 78 % 81 % 0 % 1028,6 hPa 0,0 l/m 5,1 km/h (1 Bft) SW 225 0 min 0,0 UV-I 2,3 C 3,4 C 4,8 km/h (1 Bft)
26.11.2011 16:30 5,7 C 9,9 C 5,6 C 5,4 C 4,7 C 0,0 C 78 % 81 % 0 % 1028,6 hPa 0,0 l/m 4,3 km/h (1 Bft) S 180 0 min 0,0 UV-I 2,2 C 4,7 C 5,3 km/h (1 Bft)
26.11.2011 16:35 5,7 C 9,9 C 5,6 C 5,4 C 4,7 C 0,0 C 78 % 81 % 0 % 1028,6 hPa 0,0 l/m 4,2 km/h (1 Bft) S 180 0 min 0,0 UV-I 2,2 C 4,7 C 9,3 km/h (2 Bft)
26.11.2011 16:40 5,7 C 9,9 C 5,6 C 5,3 C 4,4 C 0,0 C 79 % 81 % 0 % 1028,6 hPa 0,0 l/m 4,8 km/h (1 Bft) S-SO 157 0 min 0,0 UV-I 2,3 C 3,5 C 4,5 km/h (1 Bft)
26.11.2011 16:45 5,6 C 9,9 C 5,6 C 5,1 C 4,2 C 0,0 C 79 % 81 % 0 % 1028,6 hPa 0,0 l/m 6,0 km/h (2 Bft) S 180 0 min 0,0 UV-I 2,3 C 2,8 C 6,8 km/h (2 Bft)
26.11.2011 16:50 5,6 C 9,9 C 5,6 C 5,2 C 4,3 C 0,0 C 79 % 81 % 0 % 1028,6 hPa 0,0 l/m 6,0 km/h (2 Bft) NW 315 0 min 0,0 UV-I 2,3 C 2,9 C 3,2 km/h (1 Bft)
26.11.2011 16:55 5,7 C 9,9 C 5,5 C 5,3 C 4,5 C 0,0 C 79 % 82 % 0 % 1028,6 hPa 0,0 l/m 5,3 km/h (1 Bft) SO 135 0 min 0,0 UV-I 2,3 C 3,4 C 4,2 km/h (1 Bft)
26.11.2011 17:00 5,6 C 9,9 C 5,5 C 5,3 C 4,8 C 0,0 C 79 % 82 % 0 % 1027,8 hPa 0,0 l/m 4,7 km/h (1 Bft) SW 225 0 min 0,0 UV-I 2,3 C 4,0 C 10,6 km/h (2 Bft)
26.11.2011 17:04 5,6 C 10,0 C 5,5 C 5,3 C 4,8 C 0,0 C 79 % 82 % 0 % 1027,8 hPa 0,0 l/m 4,7 km/h (1 Bft) S 180 0 min 0,0 UV-I 2,3 C 4,0 C 9,2 km/h (2 Bft)
26.11.2011 17:09 5,5 C 10,0 C 5,5 C 5,2 C 4,6 C 0,0 C 79 % 82 % 0 % 1027,8 hPa 0,0 l/m 5,1 km/h (1 Bft) W-SW 247 0 min 0,0 UV-I 2,2 C 3,6 C 6,1 km/h (2 Bft)
26.11.2011 17:14 5,5 C 10,0 C 5,5 C 5,1 C 4,3 C 0,0 C 79 % 82 % 0 % 1027,8 hPa 0,0 l/m 5,1 km/h (1 Bft) SO 135 0 min 0,0 UV-I 2,2 C 3,2 C 4,0 km/h (1 Bft)
26.11.2011 17:18 5,5 C 10,0 C 5,5 C 5,1 C 4,3 C 0,0 C 79 % 82 % 0 % 1027,8 hPa 0,0 l/m 5,1 km/h (1 Bft) SO 135 0 min 0,0 UV-I 2,2 C 3,2 C 4,0 km/h (1 Bft)
26.11.2011 17:25 5,5 C 10,0 C 5,3 C 5,1 C 4,3 C 0,0 C 80 % 82 % 0 % 1027,8 hPa 0,0 l/m 4,5 km/h (1 Bft) W 270 0 min 0,0 UV-I 2,3 C 4,3 C 11,7 km/h (2 Bft)
26.11.2011 17:30 5,3 C 10,0 C 5,2 C 4,9 C 4,2 C 0,0 C 80 % 82 % 0 % 1027,8 hPa 0,0 l/m 4,3 km/h (1 Bft) O-NO 67 0 min 0,0 UV-I 2,1 C 4,2 C 6,9 km/h (2 Bft)
26.11.2011 17:35 5,2 C 10,0 C 5,2 C 4,7 C 3,8 C 0,0 C 80 % 83 % 0 % 1027,8 hPa 0,0 l/m 5,1 km/h (1 Bft) SW 225 0 min 0,0 UV-I 2,0 C 2,7 C 9,3 km/h (2 Bft)
26.11.2011 17:40 5,2 C 10,0 C 5,1 C 4,8 C 4,1 C 0,0 C 80 % 83 % 0 % 1027,8 hPa 0,0 l/m 4,3 km/h (1 Bft) S 180 0 min 0,0 UV-I 2,0 C 4,1 C 6,4 km/h (2 Bft)
26.11.2011 17:45 5,2 C 10,0 C 5,1 C 4,8 C 3,9 C 0,0 C 81 % 83 % 0 % 1027,8 hPa 0,0 l/m 4,3 km/h (1 Bft) S-SO 157 0 min 0,0 UV-I 2,2 C 3,9 C 6,4 km/h (2 Bft)
26.11.2011 17:50 5,2 C 10,0 C 5,1 C 4,7 C 3,8 C 0,0 C 81 % 83 % 0 % 1027,8 hPa 0,0 l/m 5,0 km/h (1 Bft) W-SW 247 0 min 0,0 UV-I 2,2 C 2,7 C 6,9 km/h (2 Bft)
26.11.2011 17:55 5,1 C 10,0 C 5,1 C 4,7 C 3,9 C 0,0 C 81 % 83 % 0 % 1027,8 hPa 0,0 l/m 4,7 km/h (1 Bft) S 180 0 min 0,0 UV-I 2,1 C 3,0 C 6,4 km/h (2 Bft)
26.11.2011 18:00 5,2 C 10,0 C 5,1 C 4,7 C 3,8 C 0,0 C 81 % 83 % 0 % 1027,8 hPa 0,0 l/m 5,0 km/h (1 Bft) SW 225 0 min 0,0 UV-I 2,2 C 2,7 C 6,4 km/h (2 Bft)
26.11.2011 18:04 5,2 C 10,0 C 5,1 C 4,7 C 3,7 C 0,0 C 81 % 83 % 0 % 1027,8 hPa 0,0 l/m 6,0 km/h (2 Bft) W 270 0 min 0,0 UV-I 2,2 C 2,2 C 13,2 km/h (3 Bft)
26.11.2011 18:09 5,2 C 10,0 C 5,1 C 4,8 C 3,3 C 0,0 C 80 % 83 % 0 % 1027,8 hPa 0,0 l/m 7,9 km/h (2 Bft) W 270 0 min 0,0 UV-I 2,0 C 1,2 C 24,1 km/h (4 Bft)
26.11.2011 18:14 5,2 C 10,0 C 5,1 C 4,8 C 3,1 C 0,0 C 80 % 83 % 0 % 1027,8 hPa 0,0 l/m 8,9 km/h (2 Bft) W-SW 247 0 min 0,0 UV-I 2,0 C 0,7 C 3,2 km/h (1 Bft)
26.11.2011 18:18 5,2 C 10,0 C 5,1 C 4,5 C 3,1 C 0,0 C 80 % 83 % 0 % 1027,8 hPa 0,0 l/m 8,9 km/h (2 Bft) W-SW 247 0 min 0,0 UV-I 2,0 C 0,7 C 3,2 km/h (1 Bft)
26.11.2011 18:25 5,4 C 10,0 C 5,3 C 5,0 C 4,1 C 0,0 C 80 % 83 % 0 % 1027,8 hPa 0,0 l/m 6,8 km/h (2 Bft) NW 315 0 min 0,0 UV-I 2,2 C 2,4 C 9,5 km/h (2 Bft)
26.11.2011 18:30 5,5 C 10,0 C 5,3 C 5,0 C 4,1 C 0,0 C 80 % 82 % 0 % 1027,8 hPa 0,0 l/m 6,9 km/h (2 Bft) SW 225 0 min 0,0 UV-I 2,3 C 2,4 C 5,0 km/h (1 Bft)
26.11.2011 18:35 5,5 C 10,0 C 5,4 C 5,2 C 4,6 C 0,0 C 80 % 82 % 0 % 1027,8 hPa 0,0 l/m 6,0 km/h (2 Bft) W-SW 247 0 min 0,0 UV-I 2,3 C 3,3 C 11,4 km/h (2 Bft)
26.11.2011 18:40 5,4 C 10,0 C 5,5 C 5,2 C 4,7 C 0,0 C 80 % 82 % 0 % 1027,8 hPa 0,0 l/m 5,5 km/h (1 Bft) SW 225 0 min 0,0 UV-I 2,2 C 3,6 C 7,9 km/h (2 Bft)
26.11.2011 18:45 5,5 C 10,0 C 5,5 C 5,2 C 4,6 C 0,0 C 80 % 82 % 0 % 1027,8 hPa 0,0 l/m 6,0 km/h (2 Bft) S-SO 157 0 min 0,0 UV-I 2,3 C 3,3 C 13,7 km/h (3 Bft)
26.11.2011 18:50 5,5 C 10,0 C 5,5 C 5,1 C 4,4 C 0,0 C 79 % 82 % 0 % 1027,8 hPa 0,0 l/m 6,4 km/h (2 Bft) N-NO 22 0 min 0,0 UV-I 2,2 C 2,9 C 5,8 km/h (2 Bft)
26.11.2011 18:55 5,6 C 10,0 C 5,5 C 5,2 C 4,4 C 0,0 C 80 % 82 % 0 % 1027,8 hPa 0,0 l/m 6,4 km/h (2 Bft) O-NO 67 0 min 0,0 UV-I 2,4 C 2,9 C 4,7 km/h (1 Bft)
26.11.2011 19:00 5,5 C 10,0 C 5,5 C 5,3 C 4,8 C 0,0 C 79 % 82 % 0 % 1027,4 hPa 0,0 l/m 5,8 km/h (2 Bft) W-SW 247 0 min 0,0 UV-I 2,2 C 3,6 C 5,8 km/h (2 Bft)
26.11.2011 19:04 5,6 C 10,0 C 5,6 C 5,3 C 4,7 C 0,0 C 79 % 82 % 0 % 1027,4 hPa 0,0 l/m 6,1 km/h (2 Bft) W 270 0 min 0,0 UV-I 2,3 C 3,3 C 12,6 km/h (3 Bft)
26.11.2011 19:09 5,7 C 10,0 C 5,6 C 5,3 C 4,6 C 0,0 C 80 % 82 % 0 % 1027,4 hPa 0,0 l/m 6,4 km/h (2 Bft) S-SW 202 0 min 0,0 UV-I 2,5 C 3,1 C 9,3 km/h (2 Bft)
26.11.2011 19:14 5,6 C 10,0 C 5,6 C 5,4 C 4,9 C 0,0 C 79 % 82 % 0 % 1027,4 hPa 0,0 l/m 6,0 km/h (2 Bft) O-SO 112 0 min 0,0 UV-I 2,3 C 3,6 C 6,0 km/h (2 Bft)
26.11.2011 19:18 5,6 C 10,0 C 5,6 C 5,4 C 4,9 C 0,0 C 79 % 82 % 0 % 1027,4 hPa 0,0 l/m 6,0 km/h (2 Bft) O-SO 112 0 min 0,0 UV-I 2,3 C 3,6 C 6,0 km/h (2 Bft)
26.11.2011 19:25 5,7 C 10,0 C 5,6 C 5,6 C 5,4 C 0,0 C 79 % 82 % 0 % 1027,1 hPa 0,0 l/m 4,8 km/h (1 Bft) S-SO 157 0 min 0,0 UV-I 2,3 C 4,6 C 6,8 km/h (2 Bft)
26.11.2011 19:30 5,8 C 10,0 C 5,7 C 5,6 C 5,2 C 0,0 C 79 % 82 % 0 % 1027,1 hPa 0,0 l/m 5,5 km/h (1 Bft) W 270 0 min 0,0 UV-I 2,4 C 4,1 C 5,8 km/h (2 Bft)
26.11.2011 19:35 5,9 C 10,0 C 5,7 C 5,6 C 4,9 C 0,0 C 79 % 82 % 0 % 1027,1 hPa 0,0 l/m 6,1 km/h (2 Bft) W-SW 247 0 min 0,0 UV-I 2,5 C 3,6 C 7,9 km/h (2 Bft)
26.11.2011 19:40 5,9 C 10,0 C 5,8 C 5,6 C 4,9 C 0,0 C 79 % 82 % 0 % 1027,1 hPa 0,0 l/m 6,1 km/h (2 Bft) S-SW 202 0 min 0,0 UV-I 2,5 C 3,6 C 15,1 km/h (3 Bft)
26.11.2011 19:45 5,9 C 10,0 C 5,9 C 5,7 C 5,2 C 0,0 C 79 % 81 % 0 % 1027,1 hPa 0,0 l/m 5,8 km/h (2 Bft) SW 225 0 min 0,0 UV-I 2,5 C 4,0 C 6,0 km/h (2 Bft)
26.11.2011 19:50 5,9 C 10,0 C 5,8 C 5,7 C 5,2 C 0,0 C 79 % 81 % 0 % 1027,1 hPa 0,0 l/m 5,8 km/h (2 Bft) S-SO 157 0 min 0,0 UV-I 2,5 C 4,0 C 4,8 km/h (1 Bft)
26.11.2011 19:55 6,0 C 10,0 C 5,9 C 5,7 C 5,1 C 0,0 C 79 % 81 % 0 % 1027,1 hPa 0,0 l/m 6,4 km/h (2 Bft) S 180 0 min 0,0 UV-I 2,6 C 3,7 C 16,1 km/h (3 Bft)
26.11.2011 20:00 6,0 C 10,0 C 5,9 C 5,7 C 5,2 C 0,0 C 79 % 81 % 0 % 1027,6 hPa 0,0 l/m 6,4 km/h (2 Bft) W-SW 247 0 min 0,0 UV-I 2,6 C 3,8 C 17,4 km/h (3 Bft)
26.11.2011 20:04 6,0 C 10,0 C 6,0 C 5,7 C 5,2 C 0,0 C 79 % 82 % 0 % 1027,6 hPa 0,0 l/m 6,3 km/h (2 Bft) N-NO 22 0 min 0,0 UV-I 2,6 C 3,9 C 6,4 km/h (2 Bft)
26.11.2011 20:09 6,0 C 10,0 C 6,1 C 5,8 C 5,3 C 0,0 C 79 % 81 % 0 % 1027,6 hPa 0,0 l/m 6,0 km/h (2 Bft) SW 225 0 min 0,0 UV-I 2,6 C 4,1 C 5,8 km/h (2 Bft)
26.11.2011 20:14 6,0 C 10,0 C 6,1 C 5,7 C 5,2 C 0,0 C 79 % 81 % 0 % 1027,6 hPa 0,0 l/m 6,3 km/h (2 Bft) S-SO 157 0 min 0,0 UV-I 2,6 C 3,9 C 6,3 km/h (2 Bft)
26.11.2011 20:17 6,0 C 10,0 C 6,1 C 5,7 C 5,2 C 0,0 C 79 % 81 % 0 % 1027,6 hPa 0,0 l/m 6,3 km/h (2 Bft) S-SO 157 0 min 0,0 UV-I 2,6 C 3,9 C 6,3 km/h (2 Bft)
26.11.2011 20:20 6,1 C 10,0 C 6,0 C 5,9 C 4,7 C 0,0 C 78 % 81 % 0 % 1026,4 hPa 0,0 l/m 8,0 km/h (2 Bft) S-SO 157 0 min 0,0 UV-I 2,6 C 2,8 C 10,6 km/h (2 Bft)
26.11.2011 20:25 6,3 C 10,0 C 6,1 C 5,9 C 4,5 C 0,0 C 78 % 81 % 0 % 1026,4 hPa 0,0 l/m 9,2 km/h (2 Bft) S-SO 157 0 min 0,0 UV-I 2,8 C 2,2 C 10,9 km/h (2 Bft)
26.11.2011 20:30 6,3 C 10,0 C 6,1 C 5,9 C 4,7 C 0,0 C 78 % 81 % 0 % 1026,4 hPa 0,0 l/m 8,9 km/h (2 Bft) SO 135 0 min 0,0 UV-I 2,8 C 2,6 C 16,1 km/h (3 Bft)
26.11.2011 20:35 6,3 C 10,0 C 6,1 C 6,0 C 4,9 C 0,0 C 78 % 81 % 0 % 1026,4 hPa 0,0 l/m 7,9 km/h (2 Bft) S-SW 202 0 min 0,0 UV-I 2,8 C 3,0 C 13,5 km/h (3 Bft)
26.11.2011 20:40 6,3 C 10,0 C 6,1 C 5,9 C 5,0 C 0,0 C 78 % 81 % 0 % 1026,7 hPa 0,0 l/m 7,6 km/h (2 Bft) W-SW 247 0 min 0,0 UV-I 2,8 C 3,2 C 14,2 km/h (3 Bft)
26.11.2011 20:45 6,3 C 10,0 C 6,2 C 6,0 C 4,9 C 0,0 C 78 % 81 % 0 % 1026,7 hPa 0,0 l/m 7,7 km/h (2 Bft) W-SW 247 0 min 0,0 UV-I 2,8 C 3,1 C 20,9 km/h (4 Bft)
26.11.2011 20:50 6,3 C 10,0 C 6,2 C 5,9 C 5,1 C 0,0 C 78 % 81 % 0 % 1026,7 hPa 0,0 l/m 7,1 km/h (2 Bft) SO 135 0 min 0,0 UV-I 2,8 C 3,5 C 11,3 km/h (2 Bft)
26.11.2011 20:55 6,3 C 10,0 C 6,3 C 6,0 C 5,3 C 0,0 C 78 % 81 % 0 % 1026,7 hPa 0,0 l/m 6,9 km/h (2 Bft) W-SW 247 0 min 0,0 UV-I 2,8 C 3,8 C 14,8 km/h (3 Bft)
26.11.2011 21:00 6,3 C 10,1 C 6,3 C 5,9 C 5,2 C 0,0 C 78 % 81 % 0 % 1026,7 hPa 0,0 l/m 7,4 km/h (2 Bft) N-NW 337 0 min 0,0 UV-I 2,8 C 3,5 C 11,1 km/h (2 Bft)
26.11.2011 21:10 6,4 C 10,1 C 6,3 C 6,1 C 4,9 C 0,0 C 78 % 81 % 0 % 1026,7 hPa 0,0 l/m 7,9 km/h (2 Bft) N 0 0 min 0,0 UV-I 2,8 C 3,0 C 11,1 km/h (2 Bft)
26.11.2011 21:20 6,4 C 10,1 C 6,2 C 6,1 C 4,8 C 0,0 C 78 % 81 % 0 % 1026,2 hPa 0,0 l/m 9,2 km/h (2 Bft) W 270 0 min 0,0 UV-I 2,8 C 2,6 C 11,3 km/h (2 Bft)
26.11.2011 21:25 6,4 C 10,1 C 6,3 C 6,1 C 5,1 C 0,0 C 78 % 81 % 0 % 1026,2 hPa 0,0 l/m 7,7 km/h (2 Bft) NO 45 0 min 0,0 UV-I 2,8 C 3,3 C 7,6 km/h (2 Bft)
26.11.2011 21:30 6,3 C 10,1 C 6,3 C 6,0 C 5,3 C 0,0 C 78 % 81 % 0 % 1026,2 hPa 0,0 l/m 6,8 km/h (2 Bft) W 270 0 min 0,0 UV-I 2,8 C 3,8 C 9,8 km/h (2 Bft)
26.11.2011 21:35 6,3 C 10,1 C 6,3 C 6,0 C 5,4 C 0,0 C 78 % 81 % 0 % 1026,2 hPa 0,0 l/m 6,3 km/h (2 Bft) SW 225 0 min 0,0 UV-I 2,8 C 4,1 C 8,5 km/h (2 Bft)
26.11.2011 21:40 6,4 C 10,1 C 6,2 C 6,0 C 5,2 C 0,0 C 78 % 81 % 0 % 1025,8 hPa 0,0 l/m 7,6 km/h (2 Bft) S-SW 202 0 min 0,0 UV-I 2,8 C 3,5 C 17,1 km/h (3 Bft)
26.11.2011 21:45 6,4 C 10,1 C 6,3 C 6,2 C 5,1 C 0,0 C 78 % 81 % 0 % 1025,8 hPa 0,0 l/m 8,5 km/h (2 Bft) S 180 0 min 0,0 UV-I 2,8 C 3,1 C 10,1 km/h (2 Bft)
26.11.2011 21:50 6,5 C 10,1 C 6,3 C 6,2 C 5,2 C 0,0 C 78 % 81 % 0 % 1025,8 hPa 0,0 l/m 7,7 km/h (2 Bft) N 360 0 min 0,0 UV-I 2,9 C 3,4 C 12,4 km/h (3 Bft)
26.11.2011 21:55 6,4 C 10,1 C 6,4 C 6,1 C 5,4 C 0,0 C 78 % 81 % 0 % 1025,8 hPa 0,0 l/m 7,1 km/h (2 Bft) W 270 0 min 0,0 UV-I 2,8 C 3,8 C 6,4 km/h (2 Bft)
26.11.2011 22:00 6,4 C 10,1 C 6,4 C 6,1 C 5,4 C 0,0 C 78 % 81 % 0 % 1025,8 hPa 0,0 l/m 7,1 km/h (2 Bft) NW 315 0 min 0,0 UV-I 2,8 C 3,8 C 10,3 km/h (2 Bft)
26.11.2011 22:14 6,5 C 10,1 C 6,4 C 6,3 C 5,3 C 0,0 C 78 % 80 % 0 % 1025,8 hPa 0,0 l/m 8,4 km/h (2 Bft) W 270 0 min 0,0 UV-I 2,9 C 3,4 C 11,6 km/h (2 Bft)
26.11.2011 22:16 6,5 C 10,1 C 6,4 C 5,7 C 5,3 C 0,0 C 78 % 80 % 0 % 1025,8 hPa 0,0 l/m 8,4 km/h (2 Bft) W 270 0 min 0,0 UV-I 2,9 C 3,4 C 11,6 km/h (2 Bft)
26.11.2011 22:20 6,6 C 10,1 C 6,4 C 6,2 C 5,3 C 0,0 C 78 % 81 % 0 % 1025,8 hPa 0,0 l/m 8,2 km/h (2 Bft) S 180 0 min 0,0 UV-I 3,0 C 3,4 C 6,6 km/h (2 Bft)
26.11.2011 22:25 6,6 C 10,1 C 6,5 C 6,2 C 5,3 C 0,0 C 78 % 80 % 0 % 1025,8 hPa 0,0 l/m 8,0 km/h (2 Bft) N 360 0 min 0,0 UV-I 3,0 C 3,5 C 10,1 km/h (2 Bft)
26.11.2011 22:30 6,7 C 10,1 C 6,5 C 6,4 C 5,5 C 0,0 C 78 % 80 % 0 % 1025,8 hPa 0,0 l/m 7,9 km/h (2 Bft) W-SW 247 0 min 0,0 UV-I 3,1 C 3,7 C 9,7 km/h (2 Bft)
26.11.2011 22:35 6,6 C 10,1 C 6,5 C 6,2 C 5,5 C 0,0 C 78 % 80 % 0 % 1025,8 hPa 0,0 l/m 7,7 km/h (2 Bft) S 180 0 min 0,0 UV-I 3,0 C 3,8 C 16,9 km/h (3 Bft)
26.11.2011 22:40 6,7 C 10,1 C 6,5 C 6,3 C 5,4 C 0,0 C 78 % 80 % 0 % 1025,4 hPa 0,0 l/m 7,6 km/h (2 Bft) W-SW 247 0 min 0,0 UV-I 3,1 C 3,7 C 13,4 km/h (3 Bft)
26.11.2011 22:45 6,7 C 10,1 C 6,5 C 6,4 C 4,9 C 0,0 C 78 % 81 % 0 % 1025,4 hPa 0,0 l/m 10,1 km/h (2 Bft) W-SW 247 0 min 0,0 UV-I 3,1 C 2,5 C 8,0 km/h (2 Bft)
26.11.2011 22:50 6,7 C 10,1 C 6,5 C 6,3 C 4,8 C 0,0 C 78 % 81 % 0 % 1025,4 hPa 0,0 l/m 10,6 km/h (2 Bft) SW 225 0 min 0,0 UV-I 3,1 C 2,3 C 16,9 km/h (3 Bft)
26.11.2011 22:55 6,6 C 10,1 C 6,5 C 6,3 C 5,0 C 0,0 C 78 % 80 % 0 % 1025,4 hPa 0,0 l/m 9,5 km/h (2 Bft) W 270 0 min 0,0 UV-I 3,0 C 2,8 C 15,4 km/h (3 Bft)
26.11.2011 23:00 6,7 C 10,1 C 6,7 C 6,3 C 4,9 C 0,0 C 78 % 80 % 0 % 1025,0 hPa 0,0 l/m 10,1 km/h (2 Bft) W 270 0 min 0,0 UV-I 3,1 C 2,5 C 22,4 km/h (4 Bft)
26.11.2011 23:04 6,7 C 10,1 C 6,6 C 5,8 C 4,9 C 0,0 C 78 % 80 % 0 % 1025,0 hPa 0,0 l/m 10,5 km/h (2 Bft) O-NO 67 0 min 0,0 UV-I 3,1 C 2,4 C 13,2 km/h (3 Bft)
26.11.2011 23:09 6,7 C 10,1 C 6,7 C 6,3 C 5,1 C 0,0 C 78 % 80 % 0 % 1025,0 hPa 0,0 l/m 9,0 km/h (2 Bft) S 180 0 min 0,0 UV-I 3,1 C 3,0 C 12,7 km/h (3 Bft)
26.11.2011 23:14 6,6 C 10,1 C 6,7 C 6,2 C 5,4 C 0,0 C 78 % 80 % 0 % 1025,0 hPa 0,0 l/m 7,6 km/h (2 Bft) W 270 0 min 0,0 UV-I 3,0 C 3,7 C 10,5 km/h (2 Bft)
26.11.2011 23:18 6,6 C 10,1 C 6,7 C 6,2 C 5,4 C 0,0 C 78 % 80 % 0 % 1025,0 hPa 0,0 l/m 7,6 km/h (2 Bft) W 270 0 min 0,0 UV-I 3,0 C 3,7 C 10,5 km/h (2 Bft)
26.11.2011 23:25 6,7 C 10,1 C 6,7 C 6,4 C 5,3 C 0,0 C 78 % 81 % 0 % 1024,8 hPa 0,0 l/m 8,0 km/h (2 Bft) O-SO 112 0 min 0,0 UV-I 3,1 C 3,5 C 5,8 km/h (2 Bft)
26.11.2011 23:30 6,7 C 10,1 C 6,7 C 6,4 C 5,4 C 0,0 C 78 % 81 % 0 % 1024,8 hPa 0,0 l/m 8,0 km/h (2 Bft) SO 135 0 min 0,0 UV-I 3,1 C 3,6 C 14,3 km/h (3 Bft)
26.11.2011 23:35 6,7 C 10,2 C 6,7 C 6,5 C 5,5 C 0,0 C 78 % 81 % 0 % 1024,8 hPa 0,0 l/m 7,7 km/h (2 Bft) O-NO 67 0 min 0,0 UV-I 3,1 C 3,8 C 6,1 km/h (2 Bft)
26.11.2011 23:40 6,7 C 10,2 C 6,7 C 6,3 C 5,6 C 0,0 C 78 % 81 % 0 % 1025,1 hPa 0,0 l/m 7,4 km/h (2 Bft) O-SO 112 0 min 0,0 UV-I 3,1 C 4,0 C 6,0 km/h (2 Bft)
26.11.2011 23:45 6,7 C 10,2 C 6,7 C 6,3 C 5,5 C 0,0 C 78 % 81 % 0 % 1025,1 hPa 0,0 l/m 7,2 km/h (2 Bft) SW 225 0 min 0,0 UV-I 3,1 C 3,9 C 8,5 km/h (2 Bft)
26.11.2011 23:50 6,7 C 10,2 C 6,5 C 6,3 C 5,4 C 0,0 C 78 % 80 % 0 % 1025,1 hPa 0,0 l/m 6,9 km/h (2 Bft) SO 135 0 min 0,0 UV-I 3,1 C 3,9 C 8,9 km/h (2 Bft)
26.11.2011 23:55 6,7 C 10,2 C 6,4 C 6,2 C 5,1 C 0,0 C 78 % 81 % 0 % 1025,1 hPa 0,0 l/m 7,2 km/h (2 Bft) SO 135 0 min 0,0 UV-I 3,1 C 3,5 C 9,0 km/h (2 Bft)
_ Min-Zeit 03:14 10:25 03:25 03:25 03:55 00:00 13:25 13:20 00:00 23:25 - 02:30 - - - 00:00 02:50 03:55 06:35
Minimum _ 2,6 C 9,4 C 2,5 C 1,8 C 0,1 C 0,0 C 75 % 78 % 0 % 1024,8 hPa - 2,6 km/h (1 Bft) - - - 0,0 UV-I 0,3 C -3,2 C 0,0 km/h (0 Bft)
_ Max-Zeit 13:30 23:35 13:25 13:30 12:50 13:30 03:14 02:40 13:30 10:40 00:00 11:40 - - 00:00 00:00 12:50 12:50 08:25
Maximum _ 7,1 C 10,2 C 7,3 C 7,7 C 7,3 C 0,6 C 85 % 87 % 16 % 1031,5 hPa 0,0 l/m 14,6 km/h
W-SW (3 Bft)
- - 0 min 0,0 UV-I 3,2 C 6,3 C 26,2 km/h
W-SW (4 Bft)
Durchschnitt _ 5,0 C 9,7 C 4,9 C 4,6 C 3,5 C 0,0 C 80 % 83 % 0 % 1028,7 hPa #0,0 l/m 7,6 km/h (2 Bft) W-SW - #0 min. 0,0 UV-I 1,9 C 1,7 C 9,9 km/h (2 Bft)
2011 www.wetterstation-wechselburg.de